Date String (YYYY-MM-DD hh:mm:ss) UTC,Instrument flags,absolute air pressure of the measurement (hPa),sample flow rate (lpm),inlet stack bypass flow (lpm),air temperature of the measurement (°C),ambient temperature measured by the external sensor (°C),aerosol sample conditioner tube jacket temperature (°C),OPC LED temperature (°C),internal box temperature (°C),relative humidity of the measurement (%),span deviation,mass concentration of particles derived from Lorenz-Mie calculation of OPC scattering (μg/m³),mass concentration of particles derived from Lorenz-Mie calculation of OPC scattering (μg/m³),mass concentration of particles derived from Lorenz-Mie calculation of OPC scattering (μg/m³)
DateTimeUTC,F1_M11,P_M11,Q1_M11,Q2_M11,T1_M11,T2_M11,T3_M11,T4_M11,T5_M11,U1_M11,ZSPAN_M11,X0_M11,X2_M11,X1_M11
2024-05-07 03:00:00,SystemResetWarning,0814.9,5.00,000.00,021.8,021.0,000.0,030.0,023.4,013.0,0000.0,0001.21,0000.50,0000.17
2024-05-07 03:01:00,SystemResetWarning,0814.9,5.00,000.00,021.8,021.0,000.0,030.0,023.4,013.1,0000.0,0001.22,0000.50,0000.17
2024-05-07 03:02:00,SystemResetWarning,0814.9,5.00,000.00,021.8,021.0,000.0,030.0,023.4,013.1,0000.0,0001.59,0000.56,0000.19
2024-05-07 03:03:00,SystemResetWarning,0814.8,5.00,000.00,021.8,021.0,000.0,030.0,023.4,013.3,0000.0,0001.75,0000.59,0000.19
2024-05-07 03:04:00,SystemResetWarning,0814.8,4.99,000.00,021.8,021.1,000.0,030.0,023.5,013.3,0000.0,0001.85,0000.60,0000.19
2024-05-07 03:05:00,SystemResetWarning,0814.8,5.00,000.00,021.8,021.1,000.0,030.0,023.5,013.2,0000.0,0002.42,0000.60,0000.18
2024-05-07 03:06:00,SystemResetWarning,0814.8,5.00,000.00,021.8,021.0,000.0,030.0,023.5,013.0,0000.0,0002.64,0000.60,0000.18
2024-05-07 03:07:00,SystemResetWarning,0814.8,5.01,000.00,021.8,021.0,000.0,030.0,023.4,013.0,0000.0,0002.86,0000.63,0000.17
2024-05-07 03:08:00,SystemResetWarning,0814.9,5.00,000.00,021.8,021.0,000.0,030.0,023.4,013.2,0000.0,0002.93,0000.64,0000.18
2024-05-07 03:09:00,SystemResetWarning,0814.9,5.00,000.00,021.8,021.0,000.0,030.0,023.4,013.3,0000.0,0002.98,0000.64,0000.18
2024-05-07 03:10:00,SystemResetWarning,0814.7,5.00,000.00,021.8,021.0,000.0,030.0,023.4,013.4,0000.0,0003.06,0000.62,0000.18
2024-05-07 03:11:00,SystemResetWarning,0814.8,5.00,000.00,021.7,021.0,000.0,030.0,023.4,013.5,0000.0,0003.19,0000.65,0000.18
2024-05-07 03:12:00,SystemResetWarning,0815.0,5.00,000.00,021.7,021.0,000.0,030.0,023.4,013.5,0000.0,0003.24,0000.67,0000.18
2024-05-07 03:13:00,SystemResetWarning,0815.0,5.00,000.00,021.7,021.0,000.0,030.0,023.4,013.4,0000.0,0002.90,0000.62,0000.17
2024-05-07 03:14:00,SystemResetWarning,0815.1,5.00,000.00,021.8,021.0,000.0,029.9,023.4,013.2,0000.0,0002.58,0000.56,0000.16
2024-05-07 03:15:00,SystemResetWarning,0814.9,5.00,000.00,021.8,021.0,000.0,029.9,023.4,013.2,0000.0,0002.61,0000.55,0000.16
2024-05-07 03:16:00,SystemResetWarning,0814.8,5.01,000.00,021.7,021.0,000.0,029.9,023.4,013.1,0000.0,0002.44,0000.58,0000.17
2024-05-07 03:17:00,SystemResetWarning,0814.6,5.00,000.00,021.8,021.0,000.0,029.9,023.4,013.2,0000.0,0002.04,0000.59,0000.18
2024-05-07 03:18:00,SystemResetWarning,0814.9,5.00,000.00,021.8,021.0,000.0,029.9,023.4,013.2,0000.0,0001.75,0000.54,0000.19
2024-05-07 03:19:00,SystemResetWarning,0815.2,5.00,000.00,021.8,021.0,000.0,029.9,023.4,013.2,0000.0,0001.65,0000.53,0000.19
2024-05-07 03:20:00,SystemResetWarning,0815.1,5.01,000.00,021.8,021.0,000.0,029.9,023.4,013.3,0000.0,0001.82,0000.54,0000.19
2024-05-07 03:21:00,SystemResetWarning,0815.1,5.00,000.00,021.8,021.0,000.0,029.9,023.4,013.0,0000.0,0002.29,0000.57,0000.19
2024-05-07 03:22:00,SystemResetWarning,0815.1,5.00,000.00,021.8,021.0,000.0,029.9,023.4,013.0,0000.0,0002.29,0000.56,0000.19
2024-05-07 03:23:00,SystemResetWarning,0814.9,4.99,000.00,021.8,021.0,000.0,029.9,023.4,013.0,0000.0,0002.29,0000.57,0000.20
2024-05-07 03:24:00,SystemResetWarning,0815.0,5.00,000.00,021.8,021.0,000.0,029.9,023.4,012.9,0000.0,0002.28,0000.57,0000.20
2024-05-07 03:25:00,SystemResetWarning,0815.1,5.01,000.00,021.8,021.0,000.0,029.9,023.4,013.0,0000.0,0002.41,0000.59,0000.20
2024-05-07 03:26:00,SystemResetWarning,0815.1,5.01,000.00,021.7,021.0,000.0,029.9,023.4,012.9,0000.0,0002.64,0000.61,0000.20
2024-05-07 03:27:00,SystemResetWarning,0815.0,5.00,000.00,021.7,021.0,000.0,029.9,023.4,012.9,0000.0,0002.51,0000.61,0000.20
2024-05-07 03:28:00,SystemResetWarning,0815.0,4.99,000.00,021.7,021.0,000.0,029.9,023.4,012.9,0000.0,0002.34,0000.58,0000.19
2024-05-07 03:29:00,SystemResetWarning,0815.1,5.00,000.00,021.7,021.0,000.0,029.9,023.4,012.9,0000.0,0002.48,0000.63,0000.19
2024-05-07 03:30:00,SystemResetWarning,0815.2,5.00,000.00,021.7,021.0,000.0,030.0,023.4,012.7,0000.0,0002.48,0000.62,0000.19
2024-05-07 03:31:00,SystemResetWarning,0815.2,5.01,000.00,021.7,020.9,000.0,029.9,023.3,012.7,0000.0,0002.46,0000.63,0000.20
2024-05-07 03:32:00,SystemResetWarning,0815.0,5.01,000.00,021.7,020.9,000.0,029.9,023.3,013.0,0000.0,0001.99,0000.63,0000.20
2024-05-07 03:33:00,SystemResetWarning,0815.2,4.99,000.00,021.7,020.9,000.0,029.9,023.4,013.2,0000.0,0001.86,0000.61,0000.21
2024-05-07 03:34:00,SystemResetWarning,0815.1,4.99,000.00,021.7,020.9,000.0,029.9,023.4,013.4,0000.0,0001.84,0000.61,0000.21
2024-05-07 03:35:00,SystemResetWarning,0815.3,5.00,000.00,021.7,020.9,000.0,029.9,023.4,013.2,0000.0,0001.95,0000.62,0000.21
2024-05-07 03:36:00,SystemResetWarning,0815.4,5.00,000.00,021.7,020.9,000.0,029.9,023.3,013.0,0000.0,0001.92,0000.64,0000.22
2024-05-07 03:37:00,SystemResetWarning,0815.2,5.00,000.00,021.7,020.9,000.0,029.9,023.3,012.4,0000.0,0001.79,0000.63,0000.22
2024-05-07 03:38:00,SystemResetWarning,0815.3,5.01,000.00,021.7,020.9,000.0,029.9,023.4,012.5,0000.0,0001.64,0000.61,0000.23
2024-05-07 03:39:00,SystemResetWarning,0815.3,5.01,000.00,021.7,020.9,000.0,029.9,023.3,012.4,0000.0,0001.79,0000.64,0000.25
2024-05-07 03:40:00,SystemResetWarning,0815.4,4.99,000.00,021.7,020.9,000.0,029.9,023.3,011.9,0000.0,0001.86,0000.65,0000.26
2024-05-07 03:41:00,SystemResetWarning,0815.4,4.99,000.00,021.7,020.9,000.0,029.9,023.3,012.7,0000.0,0002.43,0000.73,0000.28
2024-05-07 03:42:00,SystemResetWarning,0815.4,5.02,000.00,021.7,020.9,000.0,029.9,023.3,013.1,0000.0,0002.59,0000.75,0000.29
2024-05-07 03:43:00,SystemResetWarning,0815.4,5.01,000.00,021.7,020.9,000.0,029.9,023.3,012.6,0000.0,0002.47,0000.74,0000.30
2024-05-07 03:44:00,SystemResetWarning,0815.6,4.99,000.00,021.7,020.9,000.0,029.9,023.3,012.6,0000.0,0002.50,0000.76,0000.31
2024-05-07 03:45:00,SystemResetWarning,0815.1,4.99,000.00,021.7,020.9,000.0,029.9,023.3,012.6,0000.0,0002.64,0000.78,0000.31
2024-05-07 03:46:00,SystemResetWarning,0815.0,5.01,000.00,021.7,020.9,000.0,029.9,023.3,012.7,0000.0,0002.71,0000.85,0000.33
2024-05-07 03:47:00,SystemResetWarning,0815.1,5.01,000.00,021.7,020.9,000.0,029.9,023.3,012.8,0000.0,0002.87,0000.93,0000.34
2024-05-07 03:48:00,SystemResetWarning,0815.0,4.99,000.00,021.7,020.9,000.0,029.9,023.3,013.1,0000.0,0003.12,0000.98,0000.35
2024-05-07 03:49:00,SystemResetWarning,0815.0,5.00,000.00,021.7,020.9,000.0,029.9,023.3,013.2,0000.0,0004.08,0001.07,0000.35
2024-05-07 03:50:00,SystemResetWarning,0815.3,5.00,000.00,021.6,020.9,000.0,029.9,023.3,013.2,0000.0,0004.19,0001.07,0000.35
2024-05-07 03:51:00,SystemResetWarning,0815.4,5.01,000.00,021.6,020.9,000.0,029.8,023.3,012.7,0000.0,0004.03,0001.05,0000.34
2024-05-07 03:52:00,SystemResetWarning,0815.4,5.01,000.00,021.6,020.9,000.0,029.8,023.3,012.7,0000.0,0003.65,0001.01,0000.33
2024-05-07 03:53:00,SystemResetWarning,0815.3,5.00,000.00,021.6,020.9,000.0,029.8,023.3,013.0,0000.0,0003.46,0000.98,0000.32
2024-05-07 03:54:00,SystemResetWarning,0815.5,4.99,000.00,021.6,020.9,000.0,029.8,023.3,013.2,0000.0,0003.49,0000.97,0000.32
2024-05-07 03:55:00,SystemResetWarning,0815.2,5.00,000.00,021.6,020.9,000.0,029.8,023.3,013.1,0000.0,0003.60,0000.98,0000.32
2024-05-07 03:56:00,SystemResetWarning,0815.0,4.99,000.00,021.6,020.9,000.0,029.8,023.3,012.6,0000.0,0003.74,0001.03,0000.32
2024-05-07 03:57:00,SystemResetWarning,0815.4,5.00,000.00,021.6,020.9,000.0,029.8,023.3,012.7,0000.0,0004.41,0001.02,0000.32
2024-05-07 03:58:00,SystemResetWarning,0815.3,5.01,000.00,021.6,020.8,000.0,029.8,023.2,013.0,0000.0,0004.84,0000.99,0000.31
2024-05-07 03:59:00,SystemResetWarning,0815.5,5.00,000.00,021.6,020.8,000.0,029.8,023.3,013.1,0000.0,0004.61,0000.97,0000.30
